OpenBCM V1.08-5-g2f4a (Linux)

Packet Radio Mailbox

IZ3LSV

[San Dona' di P. JN]

 Login: GUEST





  
CX2SA  > KEPS     02.05.14 01:39l 108 Lines 2766 Bytes #999 (0) @ WW
BID : ORB14121.O
Read: GUEST
Subj: Orbital Elements  14121.OSCAR
Path: IZ3LSV<IR1UAW<IK1NHL<CX2SA
Sent: 140502/0036Z @:CX2SA.SAL.URY.SA #:5678 [Salto] FBB7.00e $:ORB14121.O
From: CX2SA@CX2SA.SAL.URY.SA
To  : KEPS@AMSAT


HR AMSAT ORBITAL ELEMENTS FOR OSCAR SATELLITES
FROM WA5QGD FORT WORTH,TX May 1, 2014
BID: ORB14121.O
TO ALL RADIO AMATEURS BT

Satellite: AO-07
Catalog number: 07530
Epoch time:      14121.04756154
Element set:     952
Inclination:      101.4684 deg
RA of node:       104.4379 deg
Eccentricity:    0.0012157
Arg of perigee:   029.3509 deg
Mean anomaly:     017.3099 deg
Mean motion:   12.53604514 rev/day
Decay rate:       -1.8e-07 rev/day^2
Epoch rev:           80561
Checksum:              276

Satellite: FO-29
Catalog number: 24278
Epoch time:      14121.11401091
Element set:     363
Inclination:      098.5145 deg
RA of node:       141.4637 deg
Eccentricity:    0.0351289
Arg of perigee:   059.9202 deg
Mean anomaly:     343.1058 deg
Mean motion:   13.53022603 rev/day
Decay rate:       -3.9e-07 rev/day^2
Epoch rev:           87430
Checksum:              280

Satellite: SO-33
Catalog number: 25509
Epoch time:      14121.28473594
Element set:     741
Inclination:      031.4320 deg
RA of node:       066.1322 deg
Eccentricity:    0.0349518
Arg of perigee:   063.4978 deg
Mean anomaly:     057.9211 deg
Mean motion:   14.29515181 rev/day
Decay rate:       6.55e-06 rev/day^2
Epoch rev:           81043
Checksum:              294

Satellite: RS-22
Catalog number: 27939
Epoch time:      14121.72601680
Element set:     448
Inclination:      097.8067 deg
RA of node:       298.1889 deg
Eccentricity:    0.0012267
Arg of perigee:   255.5010 deg
Mean anomaly:     104.4841 deg
Mean motion:   14.65141510 rev/day
Decay rate:       8.22e-06 rev/day^2
Epoch rev:           56592
Checksum:              306

Satellite: VO-52
Catalog number: 28650
Epoch time:      14121.06732518
Element set:     724
Inclination:      097.5601 deg
RA of node:       128.3943 deg
Eccentricity:    0.0023732
Arg of perigee:   316.0153 deg
Mean anomaly:     043.9173 deg
Mean motion:   14.85337479 rev/day
Decay rate:      2.349e-05 rev/day^2
Epoch rev:           48623
Checksum:              304

Satellite: HO-68
Catalog number: 36122
Epoch time:      14121.74616435
Element set:     545
Inclination:      100.2526 deg
RA of node:       175.0288 deg
Eccentricity:    0.0007296
Arg of perigee:   346.1127 deg
Mean anomaly:     013.9770 deg
Mean motion:   13.16314813 rev/day
Decay rate:       -4.3e-07 rev/day^2
Epoch rev:           21032
Checksum:              267

Satellite: AO-73
Catalog number: 39444
Epoch time:      14120.97683810
Element set:     130
Inclination:      097.7743 deg
RA of node:       193.2331 deg
Eccentricity:    0.0063001
Arg of perigee:   038.0952 deg
Mean anomaly:     322.4603 deg
Mean motion:   14.78159170 rev/day
Decay rate:      2.895e-05 rev/day^2
Epoch rev:            2249
Checksum:              297



Read previous mail | Read next mail


 22.12.2024 05:10:27lGo back Go up